Showing default

LEMUR 2 PETERG, 42841

Orbit data source: Space-Track

LEMUR 2 PETERG, 42841 is a payload satellite owned by Spire (US) in SSO that was launched on Fri, 14 Jul 2017 UTC via a SOYUZ-2-1A launch vehicle from the Tyuratam Missile And Space Complex (TTMTR). Payloads include a variety of satellites, spacecraft, and rockets equipped with specific instruments for various scientific and technological missions. These include communications satellites like Starlink; space stations such as the ISS; scientific satellites like the Hubble; Earth observation satellites from companies like Planet Labs, Umbra, and HawkEye 360; GPS; miniature CubeSats for education and research; and military/defense satellites.

Loading next visibility...
LEMUR 2 PETERG details
Identifier
42841, 2017-042S
Orbit
SSO
Last TLE update7 hours ago
Origin
Flag of USSpire (US)
ManufacturerSpire/Glasgow
MissionOperational Commercial Com/MetRO
Bus & MotorCUBESAT 3U, Unknown motor
Mass4 kg wet, 4 kg dry
Launch date (UTC)
2017-07-14 (7 years ago)
Launch vehicle
SOYUZ-2-1A
Launch site
Tyuratam Missile And Space Complex (TTMTR)
Object type
Payload
Rocket body
Debris
Shape & HBRBox, 0.5 m
Radar Cross Section0.093 m², Small (<0.1 m²)

Expand to show TLE details & history

TLE from 7 hours ago
0 LEMUR 2 PETERG
1 42841U 17042S   24339.07118220  .00023792  00000-0  14366-2 0  9990
2 42841  97.3875 162.5429 0005647 143.0497 217.1123 15.10686611403244
Epoch: 2024-12-04T01:42Z
Definitive object data (Epoch: 2024-12-04T01:42:30.142Z)
Latitude-0°
Longitude63.54571°
Altitude540.297 km
Speed7.591 km/s
True Right ascension10h 50m 10s
True Declination0° 00' 00"
Sunlit
Object was in daylight at TLE epoch
Visualization TLE readout
Latitude38.0405°
Longitude-110.38307°
Altitude535.527 km
Speed7.601 km/s
Apparent Right ascension21h 03m 35s
Apparent Declination1° 07' 60"
Sunlit
Object is in daylight
Visualization observer readout
Local Sidereal Time06:35:40
Azimuth311.266° NW
Elevation-36.864°
Doppler factor1
Orbital elements
Apogee altitude534.984 km
Perigee altitude527.181 km
Semi-major axis6,909.219 km
Eccentricity0.0005647
Inclination97.3875°
RAAN162.5429°
Arg. of periapsis143.0497°
True anomaly217.07328°
Mean anomaly217.1123°
Eccentric anomaly217.09279°
Mean motion3.7792 °/min
BSTAR0.0014366
Orbital period95.26 mins
Loading maneuver chart data...

LEMUR 2 PETERG Visibility forecast

Observer location: undefined°, undefined

Span
Click to sort rows by Start time (UTC) header in descending order
Start Az.
Max El. time (UTC)
Max El. Az.
Max El.
End time (UTC)
End Az.
4 mins2024-12-04 11:24:31.052Z98.336° ESE2024-12-04 11:26:31.052Z65.809° ENE14.146°2024-12-04 11:28:31.052Z33.778° NE
5 mins2024-12-04 12:58:31.052Z206.156° SW2024-12-04 13:00:31.052Z260.002° W31.555°2024-12-04 13:03:31.052Z327.107° NNW
4 mins2024-12-05 00:33:31.052Z59.886° ENE2024-12-05 00:35:31.052Z104.05° ESE20.795°2024-12-05 00:37:31.052Z140.985° SSE
4 mins2024-12-05 02:07:31.052Z330.601° NNW2024-12-05 02:09:31.052Z289.44° WNW21.203°2024-12-05 02:11:31.052Z248.92° W
|